Wind_Speed
29 30 30 30 30 30 31 31 31 31 32 33 33 32 32 33 34 34 34 34 34 34 35 35 35 35 35 35 34 34 33 32 32 31 31 30 30 31 31 32 33 35 36 36 36 35 34 32 31 30 30 30 29 29 29 30 31 33 35 38 40 41 41 40 40 40 41 41 40 37 31 24 19 16 13 12 11 7 7 14 19 23 25 28 30 31
27 28 29 29 29 30 31 31 31 31 31 32 33 33 34 34 35 35 35 34 34 33 33 33 33 33 34 34 34 34 34 33 32 32 31 30 30 30 31 32 33 34 35 36 35 34 33 31 29 28 28 28 28 28 29 29 30 32 34 37 39 41 42 42 42 42 41 41 39 36 31 24 19 16 15 14 12 9 8 13 17 19 20 23 25 28
29 29 30 30 30 30 31 31 31 31 31 32 33 34 35 35 35 35 34 33 33 33 32 32 32 32 34 34 35 35 34 34 33 32 32 31 31 31 31 31 32 33 34 34 34 33 32 30 28 27 26 27 27 28 29 29 30 31 32 35 37 40 41 42 43 43 42 41 39 36 31 25 20 16 16 15 12 9 9 14 17 17 15 17 20 23
30 30 31 31 31 30 31 32 32 33 33 34 34 35 35 34 34 33 32 32 32 32 31 30 30 32 33 34 35 35 35 34 34 33 33 32 31 31 30 29 29 30 31 32 32 32 31 29 27 26 26 26 27 28 29 29 29 30 31 33 35 37 39 40 42 42 42 41 40 38 33 27 21 18 17 16 13 9 11 15 17 16 12 14 17 18
30 30 30 30 30 31 33 33 34 35 35 35 35 34 33 32 32 32 32 31 30 29 29 29 30 31 33 34 35 35 35 34 34 34 34 33 32 30 29 28 27 28 29 30 31 31 31 29 28 26 26 26 27 28 28 28 28 29 30 32 34 36 37 38 39 40 41 41 40 38 35 30 25 21 19 17 13 9 12 15 16 15 12 13 13 14
32 31 31 31 31 33 35 35 35 35 35 34 33 32 31 30 31 31 30 29 28 28 29 30 31 32 33 33 34 34 34 34 34 34 34 33 32 30 29 28 27 27 28 29 30 31 31 30 29 27 26 26 27 28 28 29 29 30 31 32 33 34 35 36 37 38 40 40 40 39 36 32 28 25 20 16 12 9 11 14 15 14 13 13 13 12
34 33 32 32 33 34 35 36 36 34 33 32 31 30 30 29 29 28 27 27 28 29 30 30 31 31 32 32 32 33 33 34 34 35 34 33 32 30 29 28 28 28 28 29 29 30 31 30 29 28 27 26 27 27 28 29 29 30 31 32 33 34 34 34 35 36 37 39 40 39 37 33 31 27 22 15 10 9 10 11 12 12 12 14 14 13
37 35 35 34 34 34 35 35 34 32 31 30 29 29 29 29 28 27 27 27 28 28 29 30 30 30 30 30 31 31 32 32 33 33 34 33 32 31 29 29 28 28 28 28 29 30 30 30 29 27 26 25 26 26 27 28 29 30 31 32 32 33 33 33 33 33 34 36 38 38 37 35 32 29 24 16 9 8 8 7 7 9 11 14 14 13
38 38 37 35 34 34 34 34 32 30 27 27 28 28 28 29 29 28 28 27 27 26 26 28 29 30 31 31 31 31 31 31 31 31 32 32 32 31 30 29 28 28 28 27 27 28 30 29 28 25 24 23 23 25 26 27 28 29 30 31 32 32 33 33 32 32 32 34 36 37 37 35 33 30 26 19 11 7 6 5 4 6 9 12 13 12
38 38 37 35 33 32 32 32 31 29 27 26 26 26 26 27 28 29 29 29 28 26 26 27 28 30 32 32 31 31 30 30 31 31 31 31 31 30 29 29 28 28 28 27 27 27 28 28 27 24 22 21 22 23 24 26 27 28 30 31 31 31 32 32 31 31 31 32 34 35 36 35 33 30 26 19 12 8 6 4 3 4 6 9 10 11
36 34 34 32 31 29 29 29 29 28 26 25 25 25 25 26 27 28 30 30 30 29 28 28 28 29 31 32 32 32 30 30 30 30 30 29 29 29 28 27 27 27 27 27 27 26 27 27 26 24 22 22 22 23 24 25 27 28 29 30 31 31 31 31 30 30 29 30 31 33 34 33 31 28 23 18 12 8 5 3 3 3 4 5 7 9
33 32 30 29 29 28 27 26 25 24 23 23 23 25 27 27 27 27 29 30 31 30 30 30 29 28 29 30 32 32 31 29 28 28 28 27 27 26 25 25 25 25 25 26 27 27 27 27 26 26 25 25 24 24 24 25 26 27 28 29 30 30 30 30 29 28 28 28 29 30 30 30 28 26 22 19 14 9 4 1 2 2 3 3 4 7
30 30 28 27 26 26 24 23 23 23 23 23 25 27 28 28 27 27 28 29 30 30 31 31 30 30 30 30 31 31 30 29 28 27 26 25 24 23 23 23 23 23 24 25 27 28 28 28 28 29 29 28 27 26 25 24 25 26 27 28 29 29 29 29 28 28 27 27 27 27 28 28 27 26 25 22 18 13 7 3 1 2 2 2 3 5
27 26 25 24 23 23 23 23 24 25 25 26 26 27 28 28 28 28 28 30 30 30 30 30 30 31 30 29 29 29 29 28 27 26 24 23 22 22 22 22 23 23 23 25 27 29 30 30 31 32 32 31 29 27 26 25 24 25 26 27 28 28 28 28 27 27 27 26 26 26 26 27 28 28 27 25 22 18 13 7 4 3 3 3 3 4
26 26 25 25 25 25 25 26 26 26 26 27 27 27 29 28 28 28 28 29 30 30 30 30 30 30 30 27 26 25 24 24 24 24 23 23 23 22 22 23 24 24 24 25 27 30 31 32 33 34 34 32 30 28 27 25 24 24 25 26 27 27 27 27 27 26 26 26 26 26 26 28 29 29 29 27 25 22 18 12 7 4 4 4 4 4
28 26 25 26 26 26 26 26 26 26 27 27 28 28 28 28 28 29 29 30 30 29 28 28 30 31 30 27 23 22 22 23 24 25 25 24 24 23 23 23 24 25 26 26 27 29 31 33 34 34 34 33 31 29 28 26 24 23 24 25 26 26 26 26 26 25 25 25 25 25 26 27 28 29 28 27 26 24 21 16 11 6 4 4 4 4
27 26 26 27 27 27 27 26 26 27 28 28 28 28 28 29 29 29 29 29 29 28 27 27 28 30 30 27 25 23 23 24 26 27 28 28 27 25 25 25 25 26 26 27 27 28 29 31 33 33 33 33 32 31 28 26 23 22 23 24 25 25 25 25 24 24 24 25 25 25 25 26 28 28 28 27 26 25 22 19 14 10 7 5 5 4
26 27 29 29 28 27 27 26 27 28 29 28 29 29 29 29 30 31 30 29 28 27 27 28 28 28 29 28 26 25 25 26 28 30 31 31 30 28 26 26 26 27 27 27 27 27 28 30 32 33 34 33 32 30 28 24 22 21 22 22 23 24 24 23 23 23 23 24 24 24 24 26 27 28 28 27 27 26 24 21 17 13 10 7 6 5
28 28 28 27 26 27 27 28 28 28 29 29 30 31 31 32 32 31 30 28 27 27 27 28 28 29 29 30 30 29 28 29 31 33 33 32 31 30 27 25 25 26 26 26 26 26 27 29 31 32 33 32 31 28 26 23 21 20 21 21 22 22 22 22 22 23 23 23 23 23 23 25 26 27 28 28 27 26 25 23 20 17 13 10 8 7
28 27 26 26 26 27 28 29 29 29 29 30 31 32 32 32 32 30 29 28 27 27 28 28 29 29 30 32 33 32 31 31 31 31 31 31 30 28 25 23 23 24 24 25 25 24 25 27 29 31 31 30 28 26 24 21 20 19 20 21 21 22 22 22 22 22 23 23 23 22 22 24 25 27 28 28 28 27 26 24 22 19 16 13 10 9
27 27 28 27 27 28 29 31 31 30 29 30 31 32 32 32 31 30 28 28 28 28 28 29 30 31 32 33 35 35 33 32 31 30 30 30 28 25 23 22 21 22 23 23 23 23 23 24 27 28 29 28 26 24 22 21 20 19 19 20 21 21 21 21 22 22 23 23 23 23 22 23 24 26 27 28 28 27 26 25 23 21 19 16 13 11
27 29 31 31 31 30 30 30 30 29 29 30 30 31 31 31 31 30 30 29 29 29 30 30 31 32 33 35 36 35 33 30 28 28 28 28 28 26 23 21 21 21 22 22 22 21 21 23 25 26 27 26 24 23 21 20 20 19 19 20 21 22 22 22 22 22 23 23 23 23 22 23 24 25 26 27 28 27 26 25 24 22 21 18 16 13
27 29 31 31 31 30 29 29 29 30 30 30 30 30 31 31 31 31 31 30 30 30 31 32 33 33 33 34 34 33 30 27 25 25 26 27 27 26 23 21 20 21 21 22 21 21 21 22 24 25 25 24 23 22 21 20 20 20 20 21 21 22 22 22 22 22 22 23 23 22 22 22 23 24 25 27 27 27 27 26 25 24 22 20 18 15
27 29 30 29 28 27 27 28 30 31 31 30 30 31 31 31 31 31 30 29 29 30 30 30 31 32 32 31 30 28 27 24 23 23 23 25 25 25 23 21 21 21 22 21 21 21 21 22 24 24 24 23 22 21 20 20 20 20 21 21 22 22 22 22 22 22 22 22 22 22 22 22 22 23 24 26 27 27 27 26 25 24 23 22 20 18
26 27 27 26 26 26 27 29 30 30 30 30 30 30 30 30 29 28 28 27 27 27 28 28 29 30 29 28 27 26 25 22 21 21 22 23 24 24 23 22 21 21 22 22 21 21 21 22 23 24 23 22 21 20 19 18 19 20 21 21 22 22 22 22 22 22 22 22 22 21 21 22 22 23 24 25 26 26 26 25 25 24 24 23 22 20
24 24 25 25 26 27 28 29 29 29 29 29 28 28 28 27 27 27 26 25 24 24 25 26 27 28 28 26 25 24 22 20 19 19 20 22 23 24 24 22 21 21 23 23 22 21 21 22 23 23 22 21 19 18 16 16 16 18 19 20 21 22 22 22 22 22 22 22 22 22 22 22 23 23 24 24 25 25 25 25 25 25 24 24 23 21
24 24 25 25 26 26 27 27 28 27 27 26 25 25 24 24 25 25 24 24 23 23 24 25 26 27 27 25 23 22 21 20 19 20 20 22 24 24 24 22 21 21 22 23 23 23 22 22 23 22 21 19 17 15 14 13 13 14 16 18 19 21 21 22 22 22 22 22 23 23 23 24 24 24 24 24 25 25 26 26 25 25 25 24 24 22
24 24 24 24 24 25 26 26 25 25 24 23 22 22 21 21 22 23 23 24 24 24 24 24 25 26 26 25 24 23 23 22 21 21 21 21 22 22 22 21 20 20 22 23 24 24 23 21 20 19 17 15 14 13 13 12 11 11 13 15 17 19 20 21 22 22 22 23 23 23 23 24 25 25 25 25 26 26 27 26 26 25 25 25 24 22
25 25 24 24 24 24 24 23 22 22 21 21 20 20 19 20 21 22 24 24 25 24 24 24 24 25 25 26 25 25 24 22 20 19 18 19 20 20 20 19 19 20 21 22 24 24 22 20 17 14 12 11 11 12 13 13 12 12 12 13 15 17 19 20 21 22 22 22 22 22 23 24 25 25 26 26 27 27 28 27 27 26 26 25 24 22
25 25 25 25 24 23 22 21 20 19 19 19 19 19 19 20 21 23 24 24 24 24 24 24 24 25 25 25 25 24 22 19 16 14 14 16 18 19 20 20 20 20 20 21 21 21 21 19 15 12 10 10 12 13 14 14 13 13 12 12 13 15 17 19 20 21 21 21 21 21 22 23 24 25 25 26 27 28 28 27 27 26 26 25 24 21
24 24 25 25 24 22 21 19 19 19 19 19 19 20 20 21 22 23 24 24 23 23 24 24 24 25 24 24 23 22 21 19 16 15 16 17 19 20 21 21 21 21 20 19 18 19 19 19 17 15 13 14 16 16 16 15 14 13 12 11 11 12 15 17 18 19 20 20 20 20 21 22 23 24 25 25 26 27 27 27 26 26 26 26 23 20
23 24 24 24 23 21 20 20 20 20 21 21 21 22 22 23 23 24 24 24 23 23 24 24 25 25 24 24 24 23 23 22 22 21 20 20 21 22 22 22 22 21 20 19 19 19 19 19 20 20 20 20 19 18 17 15 14 13 12 11 9 10 12 14 16 18 19 19 19 20 20 21 23 24 24 25 26 27 27 26 26 26 27 26 23 20
23 23 24 23 22 21 20 20 21 22 22 23 23 24 24 25 25 25 24 24 23 23 24 25 25 25 25 25 25 26 26 26 25 23 21 20 21 22 22 22 22 21 21 20 20 20 20 21 22 23 23 22 20 18 17 16 14 13 12 11 9 9 10 12 14 15 17 18 19 19 20 21 22 23 24 25 26 26 27 27 27 27 27 26 24 20
23 23 22 21 20 20 20 20 20 21 22 23 24 25 25 26 26 26 25 24 23 23 24 25 25 26 26 27 26 26 27 26 25 22 21 20 21 22 22 22 22 22 21 20 20 20 20 21 22 22 22 22 21 20 18 17 15 13 12 11 10 9 9 10 12 13 15 17 18 18 19 20 21 22 23 24 25 26 27 27 27 27 28 27 25 20
22 22 21 20 19 18 19 19 20 21 21 22 24 25 26 27 27 27 26 25 24 24 24 24 25 25 26 27 27 28 28 27 25 23 22 21 22 22 23 23 22 21 21 21 21 20 20 21 21 21 21 22 22 22 20 17 15 13 12 12 11 11 10 10 11 12 14 16 17 18 18 19 20 21 22 23 25 25 26 26 27 27 28 28 26 23
21 21 19 18 18 18 18 19 20 20 21 22 24 25 26 27 27 27 27 26 25 25 24 24 25 25 25 26 27 28 29 28 26 24 23 22 23 24 24 23 23 22 21 22 22 21 21 22 22 22 21 21 21 21 20 18 16 14 13 13 12 12 11 11 11 12 13 14 16 17 18 19 20 20 21 23 24 25 26 26 26 27 27 27 27 26
20 19 18 17 17 18 19 20 20 21 22 23 24 26 27 27 28 28 27 27 26 26 25 25 25 25 26 26 26 27 27 26 25 23 22 22 22 24 25 25 24 23 22 22 22 22 23 23 23 22 21 20 19 19 19 19 18 17 15 14 14 13 13 12 11 12 12 14 15 16 18 18 19 20 20 21 23 24 25 26 26 27 27 27 27 27
19 18 17 17 18 19 19 20 21 21 22 23 25 26 27 28 28 28 28 28 27 27 26 26 26 26 26 26 27 27 26 25 24 22 21 20 21 23 25 26 26 25 24 23 23 23 24 23 23 22 21 20 19 19 19 20 20 19 18 17 16 15 14 12 11 11 12 13 14 16 17 18 18 19 19 19 20 22 24 25 26 27 27 27 27 27
18 18 18 18 19 19 20 21 22 23 23 24 25 26 27 28 29 29 29 29 28 27 27 26 26 26 26 27 27 26 25 25 23 22 20 20 20 21 23 25 25 25 24 23 23 23 24 24 23 22 21 21 21 20 20 20 20 20 21 20 19 17 14 11 10 10 11 12 13 14 15 17 18 18 18 18 18 20 22 24 26 27 27 27 27 27
18 19 19 20 20 21 22 23 24 24 24 25 26 27 28 28 29 29 29 29 28 27 27 26 26 25 25 25 25 25 24 23 22 20 19 18 18 18 19 22 23 24 24 23 23 23 23 24 23 23 23 23 23 23 22 21 21 21 22 21 21 18 14 12 11 10 11 11 12 12 13 15 17 17 18 18 18 19 20 21 23 25 26 27 26 26
20 20 21 21 22 22 24 24 25 25 25 25 26 27 27 28 29 29 30 29 29 28 27 26 26 26 26 25 25 24 24 23 22 21 19 17 16 16 16 18 20 21 22 23 23 23 23 23 23 23 23 23 24 24 23 22 22 21 21 21 21 21 18 15 13 11 10 10 11 12 13 14 16 17 18 19 19 19 19 19 18 19 22 24 24 23
21 21 22 22 23 24 25 26 26 25 25 24 24 25 26 27 28 29 29 29 29 28 27 26 26 26 27 26 25 24 23 23 23 22 20 18 16 15 15 16 17 18 20 22 22 23 23 23 23 23 23 23 24 24 23 23 22 21 20 20 21 22 21 18 13 10 9 9 10 11 12 13 15 16 18 19 19 20 20 20 19 18 18 19 20 20
22 22 22 23 24 25 26 27 26 25 24 23 23 24 25 26 27 28 29 29 29 28 27 26 26 26 26 26 25 24 23 22 22 22 21 19 17 16 15 15 15 16 18 20 22 23 23 23 23 24 23 23 23 23 23 23 22 21 20 20 20 19 20 18 14 10 9 9 9 10 11 12 13 15 17 18 19 19 19 20 22 23 22 20 19 20
22 22 23 24 25 26 26 26 26 25 24 23 23 23 24 25 26 28 28 29 29 29 28 27 26 26 26 25 24 23 23 22 22 22 21 20 18 16 16 16 15 15 16 18 20 22 23 23 23 23 22 22 22 23 23 22 21 21 21 20 20 19 19 19 17 14 12 11 10 10 11 11 12 14 16 18 18 19 19 21 23 25 26 24 22 21
22 22 22 23 24 25 26 26 26 25 24 23 23 23 24 25 26 27 28 29 29 29 28 27 26 25 25 24 24 23 23 23 23 23 22 21 19 17 16 16 16 16 16 18 19 21 22 23 23 23 22 22 22 22 22 22 21 21 21 21 20 20 20 20 19 18 16 14 13 12 12 12 13 14 16 17 19 20 20 21 23 24 25 26 24 22
21 21 22 24 25 26 27 27 26 25 24 23 23 23 23 24 25 26 27 28 28 28 28 27 25 24 24 24 24 24 24 25 25 24 23 22 20 19 17 16 15 16 16 18 19 20 22 23 24 23 23 22 22 23 24 23 22 22 22 22 21 20 21 20 20 19 17 16 14 13 13 14 14 15 16 18 19 20 21 22 23 23 24 26 26 25
22 23 24 25 26 27 27 26 25 25 24 24 23 23 23 23 24 26 27 28 28 28 28 27 25 24 23 23 23 24 24 25 26 25 24 23 21 20 19 17 16 16 16 17 19 20 22 23 24 24 24 24 24 25 25 24 23 22 22 21 21 20 20 20 20 19 17 15 14 13 13 14 15 16 17 18 19 20 21 22 23 24 25 26 27 27
23 24 25 26 27 27 27 26 25 24 24 23 23 22 23 23 24 25 26 27 28 27 27 26 25 25 24 24 23 23 24 25 25 25 24 23 21 20 20 19 18 18 18 18 19 20 21 22 23 24 25 25 26 27 27 26 24 23 22 21 21 20 20 21 20 19 17 16 14 13 13 14 15 16 17 17 19 20 21 22 23 24 25 27 28 28
24 24 25 26 27 27 26 26 25 24 23 23 22 22 22 23 24 24 26 27 27 27 26 26 25 25 25 24 24 24 24 25 25 24 23 22 22 21 21 20 20 19 19 19 19 20 20 21 21 22 23 24 26 27 28 27 25 24 23 22 21 21 21 21 21 20 18 17 15 14 14 14 15 16 16 17 18 20 21 23 24 24 25 26 28 29
24 24 25 26 27 27 27 26 25 24 23 22 22 22 22 23 24 24 25 26 26 26 25 25 25 25 25 25 25 25 24 25 24 24 23 23 23 23 23 22 21 20 19 19 19 18 18 19 20 21 22 22 23 24 25 26 25 23 23 22 22 22 21 21 21 20 18 17 16 15 14 14 15 16 17 18 19 20 21 22 23 24 25 26 27 29
24 25 25 26 27 27 27 27 25 24 23 22 21 21 22 23 23 24 25 25 25 25 25 25 25 25 25 25 25 25 24 24 24 24 24 24 23 23 23 22 21 20 19 19 18 17 16 16 17 18 19 20 20 19 20 21 22 22 22 22 21 20 20 20 20 19 18 17 15 15 14 14 14 15 17 18 19 20 20 20 22 23 24 25 26 28
Wind_Direction
288 290 293 293 292 291 290 291 292 292 292 293 293 294 295 296 296 296 295 295 295 295 296 296 297 298 300 302 303 303 302 301 300 301 302 301 301 300 299 297 295 294 292 291 290 290 291 292 293 294 295 296 298 299 298 297 296 295 297 298 300 301 303 305 306 306 305 304 305 308 314 324 340 360 19 25 30 51 140 164 178 189 199 207 212 215
289 290 291 292 291 290 290 291 292 291 291 291 292 294 297 296 296 296 296 296 295 295 296 297 298 299 301 302 303 303 303 302 302 302 302 302 302 301 299 297 295 294 292 292 291 291 291 292 293 295 295 296 296 296 295 293 292 293 295 296 298 299 301 302 303 304 304 304 306 310 314 323 336 351 3 6 12 34 101 138 155 168 181 196 207 214
291 291 291 292 291 291 291 292 292 292 290 291 292 294 296 295 295 296 297 297 296 296 297 297 298 299 301 302 303 304 304 305 305 305 305 304 303 302 300 298 296 294 293 292 292 291 291 292 293 293 294 294 294 293 291 290 289 290 291 293 294 296 298 300 301 302 303 303 306 311 314 321 332 346 357 3 13 41 104 134 148 157 168 184 198 208
290 290 291 293 293 292 291 292 293 293 292 293 293 294 295 295 295 296 296 296 296 296 297 297 298 299 301 302 303 304 306 307 307 307 307 306 305 303 302 300 298 296 294 292 291 290 290 291 292 292 292 292 291 290 288 288 289 290 290 290 291 293 295 297 299 300 303 303 305 306 309 314 323 337 350 359 15 55 114 137 153 162 163 176 187 197
289 289 290 291 292 291 292 293 293 294 295 295 295 295 296 295 295 295 296 297 296 296 297 298 298 299 300 301 303 305 307 307 308 308 309 309 308 307 306 304 302 299 295 293 291 289 289 289 290 291 291 289 289 288 286 288 290 290 289 287 288 289 292 294 297 299 302 304 305 306 306 307 313 324 339 356 15 61 119 143 157 165 167 172 179 186
289 289 289 290 289 290 292 293 294 295 296 296 296 295 295 294 294 295 296 296 297 297 298 298 298 299 300 301 303 305 306 307 308 309 311 312 312 311 309 307 305 302 298 294 291 289 288 289 290 290 290 289 288 287 286 287 288 288 287 286 286 287 289 292 295 299 302 303 305 306 305 305 308 316 329 350 19 66 117 142 157 164 167 171 173 174
289 289 290 289 289 290 291 292 293 294 295 294 294 294 294 294 295 295 294 294 296 297 298 298 299 300 301 302 303 304 304 305 307 310 312 314 314 313 311 309 306 303 300 296 292 290 288 288 290 290 290 289 288 287 286 286 286 286 286 285 285 286 288 291 295 299 301 303 303 302 302 301 304 312 321 342 21 70 107 133 151 163 169 173 173 171
289 290 291 289 289 290 290 291 292 292 292 290 291 293 295 297 298 296 294 295 296 296 298 299 300 301 301 302 302 302 303 303 305 308 311 312 314 314 312 309 307 304 301 298 294 291 289 289 290 291 291 290 289 288 287 287 287 286 286 286 286 286 288 291 294 298 301 302 302 301 299 297 299 306 315 331 4 56 88 112 139 161 171 176 175 175
290 291 291 290 288 288 289 289 290 290 288 288 289 291 293 297 299 299 298 297 297 297 298 299 300 301 302 302 302 302 301 301 302 304 306 309 311 311 311 309 307 306 304 301 297 293 291 291 292 293 293 292 291 290 289 288 287 287 287 286 286 286 287 289 293 296 299 300 301 301 299 296 297 302 311 319 339 20 49 72 111 151 168 175 177 179
289 289 289 288 287 286 286 287 289 290 289 290 292 293 293 296 298 300 301 300 299 299 299 299 300 301 302 303 303 302 301 300 300 301 302 304 307 308 308 308 308 308 307 305 301 296 292 292 293 295 297 296 295 293 291 289 287 286 286 286 286 286 286 288 291 294 297 298 299 299 298 296 297 301 307 311 325 350 8 30 67 123 156 169 177 182
287 286 286 285 285 285 284 286 288 291 293 294 295 296 296 296 298 300 301 300 300 300 300 299 299 300 302 303 304 303 301 300 299 300 301 303 304 306 307 307 307 308 307 307 304 299 294 293 295 298 300 301 300 298 294 291 287 286 286 286 286 286 286 287 289 292 295 296 297 298 299 298 299 302 304 305 313 328 346 15 55 92 128 152 175 182
283 283 283 283 283 283 285 288 291 294 297 298 299 299 299 298 298 299 298 298 299 299 300 300 299 299 300 301 302 302 300 298 296 298 299 301 303 304 305 304 304 304 304 305 304 301 298 296 297 299 302 304 304 302 298 293 289 286 285 285 285 285 285 286 288 290 292 293 295 297 298 298 299 299 299 298 299 305 317 5 81 91 104 122 161 180
280 281 282 281 282 283 287 293 297 299 300 300 300 300 299 299 299 298 296 296 296 297 299 300 300 300 300 301 301 300 299 296 295 295 296 297 299 300 300 300 299 299 299 301 302 302 301 300 299 300 302 304 305 304 301 296 290 286 284 284 284 284 285 285 286 287 288 290 292 294 295 295 294 293 292 291 291 292 291 269 182 141 127 124 134 166
283 285 286 286 287 290 294 298 300 300 300 299 299 299 299 299 299 298 296 295 295 296 298 298 298 300 301 301 301 300 298 296 295 295 294 294 295 296 297 296 296 296 296 297 299 301 302 302 301 301 302 304 305 304 302 297 291 286 283 282 282 283 283 283 284 284 285 286 288 289 289 289 288 287 286 287 287 287 284 273 239 190 170 155 143 156
290 290 290 291 293 296 298 299 299 299 298 299 299 298 299 298 298 298 296 295 296 297 298 298 299 300 302 301 302 301 299 296 295 294 293 294 295 296 296 295 294 294 294 294 296 299 301 301 300 300 301 302 303 302 301 298 292 286 282 280 280 280 281 281 282 283 283 284 285 285 286 285 284 283 283 283 284 283 282 277 264 228 197 185 170 160
290 291 293 295 297 298 299 299 298 298 298 299 299 299 298 298 298 297 297 296 296 297 299 300 302 303 304 303 303 303 302 300 299 297 296 295 295 295 295 293 293 293 293 293 294 296 299 299 299 299 299 300 300 300 299 297 292 285 280 278 278 278 279 280 281 281 282 282 283 284 284 283 282 281 281 281 281 281 280 277 273 261 234 211 194 175
291 294 296 297 298 297 297 297 297 297 298 298 299 299 298 298 298 297 297 297 296 296 298 300 302 304 305 305 305 305 306 304 301 299 297 296 295 295 294 293 292 291 292 292 292 293 294 296 297 297 297 297 298 299 298 296 291 284 278 276 275 276 277 278 279 279 279 280 281 281 281 281 281 279 279 279 279 279 278 276 274 271 261 242 222 200
293 295 296 296 295 296 296 297 297 297 298 299 299 299 299 298 299 299 297 296 295 295 297 299 300 301 302 303 304 305 306 304 301 298 296 295 294 293 293 291 290 290 290 289 290 290 291 293 294 295 295 297 298 298 297 295 290 283 277 274 273 273 274 275 275 276 276 276 276 277 278 278 278 278 277 276 276 276 275 274 273 272 270 261 248 233
292 293 293 293 294 294 295 296 296 297 298 299 300 301 301 300 300 299 297 295 293 293 295 296 297 297 298 299 300 302 304 302 299 297 295 294 293 292 291 290 289 288 288 288 288 289 290 291 293 294 295 296 297 298 297 294 288 282 276 272 270 270 270 271 271 271 271 271 271 272 273 274 275 275 275 274 274 273 272 272 272 272 270 266 261 251
290 291 290 291 292 294 294 294 295 297 298 300 301 301 300 300 299 298 297 295 294 294 294 295 295 295 296 297 298 299 300 299 298 296 295 293 292 291 290 289 288 287 287 288 288 289 290 291 293 294 296 297 297 298 296 293 288 281 275 271 268 267 266 266 266 266 266 266 267 267 268 269 270 272 272 272 271 270 270 270 271 270 268 266 263 257
287 287 287 290 291 292 293 294 296 298 299 301 301 300 299 300 299 299 298 297 296 296 295 295 294 294 295 296 296 297 298 297 295 295 294 293 291 290 290 290 289 288 288 288 289 290 290 291 292 294 296 298 298 298 297 293 287 281 275 270 267 265 263 263 263 263 263 263 263 263 263 263 265 268 269 269 268 268 268 269 269 268 266 264 262 258
284 287 292 294 294 292 293 295 297 299 300 301 300 299 299 299 299 298 298 297 297 296 295 294 293 293 294 294 294 295 296 295 293 292 292 291 290 289 291 291 291 289 288 289 291 291 291 291 293 295 298 299 299 298 296 293 287 281 275 270 267 265 263 262 261 260 261 261 260 260 260 260 261 264 266 266 266 266 266 267 268 267 265 262 260 257
290 293 296 296 295 295 295 297 298 300 301 301 299 298 297 296 296 296 296 296 296 295 294 294 294 294 294 294 295 295 295 294 292 290 289 288 288 289 292 292 291 289 288 290 291 292 293 293 294 297 299 300 300 299 297 293 288 282 276 271 268 266 264 263 262 261 260 260 260 259 258 258 259 260 262 263 264 264 264 266 266 265 263 260 259 256
297 297 296 296 297 297 298 298 299 301 301 300 298 297 296 295 294 294 294 294 294 294 294 295 296 296 295 295 295 295 294 291 289 287 285 284 285 288 291 292 292 290 290 291 292 293 294 294 296 299 300 301 301 300 298 294 288 282 276 272 269 267 266 265 264 263 262 261 260 259 258 257 256 257 259 260 261 262 263 264 263 262 260 258 257 255
298 297 297 297 298 298 298 299 299 299 299 298 297 296 296 295 295 294 294 294 294 294 295 296 296 296 296 296 295 294 293 292 289 285 283 283 284 287 290 292 292 291 291 293 294 295 294 295 296 299 301 302 303 302 300 295 288 282 276 272 270 268 267 266 265 264 263 261 260 258 256 254 253 253 254 256 258 259 260 260 258 257 256 255 255 253
295 295 296 297 298 299 299 299 299 299 298 297 296 296 296 297 297 297 297 296 296 296 297 297 297 296 297 297 296 295 295 295 292 287 284 284 286 287 289 291 292 292 293 295 296 296 295 295 297 299 302 303 304 304 302 296 288 280 274 271 269 268 266 265 264 262 261 259 257 255 253 250 249 248 249 251 253 254 255 253 252 251 252 253 253 252
296 298 300 301 303 303 303 303 302 301 299 298 297 297 298 299 299 299 298 297 298 298 298 297 297 298 298 297 296 294 295 295 292 288 286 285 285 286 288 291 293 294 295 296 297 297 296 296 298 300 302 304 305 306 304 299 289 280 273 269 267 265 264 262 261 260 258 256 254 252 250 248 246 245 244 244 246 247 247 246 246 246 248 250 251 251
301 304 307 308 309 310 309 308 306 304 302 301 300 300 301 302 301 299 297 298 300 300 299 297 297 297 298 297 296 295 295 293 291 289 287 285 282 283 287 291 294 296 298 299 299 299 298 297 298 300 301 302 304 304 305 304 298 287 276 269 264 263 261 260 260 259 258 256 254 252 250 248 245 243 241 240 240 240 240 240 240 242 245 247 249 250
308 311 312 313 314 313 312 310 309 307 307 306 307 308 309 308 304 301 301 303 303 302 299 298 296 296 296 297 297 296 295 293 292 292 290 285 282 282 287 292 295 298 300 302 303 302 301 299 299 299 298 298 299 300 301 304 303 297 287 274 265 261 260 259 259 258 258 257 255 253 251 249 246 244 241 238 237 236 236 235 237 239 242 245 246 247
314 315 314 314 314 314 314 313 313 314 315 316 317 318 317 316 313 311 310 310 307 302 299 298 297 297 297 298 298 298 296 295 295 296 293 288 286 286 290 293 295 297 300 303 305 305 303 303 302 299 296 296 297 298 300 301 302 302 297 284 269 261 258 258 257 257 257 256 255 253 251 248 246 244 242 238 236 234 233 232 233 236 239 241 243 245
313 312 311 312 314 315 316 318 321 323 325 326 326 325 324 322 321 320 317 314 309 303 299 297 297 298 297 296 296 295 293 293 294 293 291 291 289 289 292 293 294 295 297 300 302 303 304 304 302 301 300 301 302 302 303 303 302 302 300 292 277 263 257 256 257 256 256 255 254 252 249 247 245 243 241 238 235 232 230 228 229 231 235 238 240 243
307 307 309 312 315 318 322 325 327 328 329 330 330 329 328 326 325 323 321 316 310 305 300 298 297 297 295 292 289 287 287 289 290 291 290 290 289 289 290 291 292 293 294 294 293 294 296 299 300 302 303 304 306 307 308 307 305 303 301 298 286 269 257 255 256 256 256 255 254 251 248 245 243 242 239 236 233 230 227 224 224 226 230 233 235 238
304 306 310 314 319 323 326 327 327 327 327 327 328 328 327 327 326 324 322 318 312 306 302 299 298 297 295 292 288 285 285 287 289 291 290 288 287 288 289 290 290 291 292 292 289 287 287 290 295 300 303 304 306 307 308 308 307 306 303 300 292 276 261 254 253 254 256 255 254 252 249 246 244 242 239 236 232 228 224 221 220 221 225 228 229 231
303 307 312 317 321 323 323 323 322 322 322 322 323 323 324 325 325 324 322 319 314 309 305 302 300 298 297 295 292 289 289 289 291 292 289 287 286 286 288 288 289 290 291 291 290 288 286 287 291 296 301 302 303 304 306 308 310 309 305 302 296 284 270 256 250 250 252 254 255 254 251 248 245 243 240 236 233 229 224 220 217 218 220 223 224 224
303 309 314 317 318 317 317 318 318 319 319 319 320 320 321 323 323 323 322 320 317 313 310 306 304 301 299 296 294 292 292 294 295 293 288 285 283 284 285 285 286 287 289 289 290 290 289 289 291 294 297 300 301 303 304 308 310 310 306 304 301 296 285 268 254 249 249 252 254 255 253 251 248 245 241 237 234 230 226 221 218 217 218 220 220 219
304 309 312 313 313 313 314 316 318 319 319 319 320 320 321 322 323 324 323 322 321 319 316 313 311 308 306 302 297 295 296 299 300 297 291 285 282 281 282 281 282 283 285 286 287 288 289 290 291 292 294 295 297 300 303 306 308 308 305 304 303 300 293 280 265 254 250 251 252 254 254 253 250 247 243 238 234 230 226 222 219 217 217 218 219 218
304 306 308 309 309 311 314 317 319 321 321 321 321 322 322 323 323 324 324 324 324 324 323 322 320 317 315 312 308 306 306 307 306 302 297 291 286 282 280 279 279 280 280 281 283 285 286 288 290 291 291 291 292 295 300 304 305 304 302 301 300 298 294 285 273 261 254 251 251 251 253 254 254 251 246 241 237 232 228 224 220 219 218 218 219 219
301 302 304 305 308 310 314 317 320 322 323 323 323 323 323 323 323 324 325 326 327 327 327 326 324 322 321 318 317 316 316 314 312 309 305 298 293 288 282 280 279 278 277 277 279 281 283 284 286 288 289 288 289 291 295 299 301 301 301 300 298 296 294 291 281 269 258 252 249 250 253 255 256 255 251 246 240 235 231 227 223 221 220 220 221 221
297 298 300 303 306 310 313 317 320 323 325 325 325 324 323 323 323 324 325 326 327 327 327 325 323 321 320 320 319 319 319 318 316 313 309 302 295 289 284 280 278 277 277 276 276 277 278 279 280 282 285 287 288 290 292 294 296 298 299 300 299 297 296 295 288 275 262 253 249 249 251 253 255 255 252 247 241 237 233 229 225 223 221 222 222 223
295 297 300 303 307 310 314 317 321 324 326 327 327 325 323 322 321 323 324 326 327 327 326 325 323 321 320 319 319 320 322 323 322 319 314 307 298 290 283 279 277 276 276 276 275 274 274 274 275 277 279 282 285 288 289 290 292 294 298 300 299 298 296 292 284 273 261 252 247 247 247 249 251 252 249 245 240 236 232 229 227 225 224 224 225 225
294 296 299 303 307 310 313 316 320 324 326 327 325 323 321 319 319 320 322 325 326 327 327 325 324 324 323 323 323 324 326 328 328 326 322 316 307 297 289 282 278 277 276 275 274 272 271 272 273 275 276 278 281 284 285 287 288 291 294 294 295 296 295 292 286 277 263 253 246 244 244 245 247 249 248 246 242 236 230 226 225 226 226 227 226 226
292 294 298 301 305 309 311 314 318 322 325 324 322 319 318 318 318 318 320 322 325 326 327 325 324 323 323 325 327 328 328 329 330 329 327 321 313 306 299 291 285 281 278 277 275 273 271 271 271 273 274 276 279 281 283 284 286 288 289 290 293 296 297 295 291 285 275 262 251 244 241 242 243 245 246 246 245 241 234 226 221 219 220 223 225 224
290 293 296 300 303 306 309 312 315 319 321 321 319 317 318 318 318 318 319 320 323 326 327 326 325 323 323 324 327 328 328 328 329 330 329 326 320 312 306 300 293 286 280 278 276 275 274 273 272 272 273 276 277 278 280 282 284 285 285 286 289 292 292 293 292 288 277 266 255 246 242 241 241 242 243 245 245 244 239 231 223 217 213 215 218 221
288 291 294 298 302 304 306 309 312 314 316 316 316 316 318 318 318 318 318 320 323 326 327 327 326 325 324 324 324 326 327 328 329 331 332 332 327 319 311 306 300 291 281 277 275 275 276 276 275 274 275 275 276 276 277 279 280 281 282 283 284 284 284 287 290 289 280 265 252 244 240 239 239 239 240 242 243 242 239 234 228 221 215 213 214 216
287 289 292 295 298 301 303 306 309 311 312 313 314 315 317 317 317 318 319 321 323 326 327 327 326 324 322 322 323 324 325 328 331 333 335 336 334 327 317 309 302 295 287 279 276 274 274 275 275 276 276 276 275 274 274 275 276 278 279 280 281 282 284 287 289 288 284 272 257 245 238 235 235 237 238 238 238 237 235 233 229 224 219 215 213 214
283 286 289 292 295 298 301 304 306 308 310 311 312 314 316 316 317 318 320 321 323 325 326 328 326 323 320 321 322 323 324 327 330 334 336 337 336 332 324 313 303 296 289 282 276 273 271 271 273 274 275 275 274 272 271 272 273 275 277 278 279 280 282 284 286 286 284 279 267 253 241 236 235 236 236 235 234 233 233 232 229 225 222 218 215 213
282 286 290 292 294 297 299 302 305 306 307 308 310 313 314 315 316 317 320 322 323 325 327 328 327 324 321 320 320 321 322 324 328 331 334 335 334 331 326 319 310 301 292 286 281 276 273 271 271 271 272 272 271 271 271 272 271 271 273 275 276 277 278 280 283 285 284 280 272 260 247 240 240 240 239 238 236 235 235 234 231 228 224 219 216 214
285 288 291 292 294 296 299 302 304 305 305 306 308 311 313 314 314 315 318 321 324 326 327 328 326 324 322 321 321 321 321 322 325 328 330 332 331 329 326 322 317 310 303 296 291 286 282 277 274 271 269 268 268 269 271 272 271 270 271 272 273 273 273 276 280 282 281 277 270 260 251 246 245 244 242 240 239 237 236 235 234 231 227 223 219 216
286 287 289 291 293 295 298 301 303 303 303 304 306 308 310 312 313 314 316 321 324 326 327 326 325 324 323 322 322 323 323 323 325 326 328 328 328 328 327 326 322 316 310 305 301 297 292 287 282 277 272 270 269 270 271 272 272 272 271 270 270 270 271 274 277 278 277 274 269 260 252 247 243 238 237 239 238 237 235 235 234 232 230 226 222 218
283 285 288 290 292 295 297 300 301 302 302 303 304 306 307 309 311 313 317 321 324 326 326 326 325 324 322 322 322 323 323 323 324 325 326 327 327 328 328 327 324 319 313 309 306 301 297 293 289 285 281 277 275 274 273 274 275 274 271 269 268 268 269 271 274 275 274 273 269 263 256 248 239 233 231 234 235 235 234 234 234 233 231 228 225 221
281 284 287 289 292 294 296 299 301 301 302 302 302 303 304 305 308 311 316 320 323 325 326 326 325 323 322 322 321 321 322 322 322 323 326 327 328 328 328 327 325 321 315 311 306 302 297 294 291 288 286 284 283 282 278 277 276 274 271 270 269 269 269 270 273 275 274 272 268 262 256 247 237 230 228 230 232 233 233 235 235 233 232 230 227 224
Height
1417 1415 1413 1412 1411 1409 1406 1405 1405 1403 1400 1398 1397 1395 1393 1392 1390 1387 1385 1384 1382 1379 1377 1374 1372 1369 1367 1365 1364 1362 1361 1359 1357 1355 1353 1351 1349 1347 1345 1343 1340 1338 1336 1334 1333 1332 1332 1332 1332 1331 1329 1328 1326 1325 1324 1322 1320 1316 1312 1308 1304 1302 1301 1301 1301 1301 1300 1302 1303 1304 1302 1300 1298 1297 1297 1299 1301 1304 1305 1307 1308 1309 1310 1311 1313 1314
1415 1414 1412 1410 1410 1408 1405 1403 1403 1401 1399 1396 1395 1393 1392 1390 1387 1385 1383 1381 1379 1377 1375 1372 1370 1367 1365 1363 1361 1360 1359 1357 1355 1353 1351 1349 1347 1345 1343 1341 1338 1336 1334 1331 1330 1329 1329 1330 1330 1329 1328 1327 1325 1324 1323 1321 1319 1316 1312 1309 1305 1301 1299 1298 1298 1298 1299 1301 1302 1302 1300 1298 1296 1295 1295 1297 1299 1300 1300 1301 1302 1304 1305 1308 1310 1312
1414 1412 1410 1408 1407 1406 1403 1401 1400 1399 1397 1395 1393 1391 1389 1387 1385 1382 1380 1378 1376 1374 1372 1370 1368 1365 1363 1361 1360 1358 1356 1354 1352 1350 1349 1347 1345 1343 1341 1339 1336 1334 1331 1329 1328 1327 1327 1327 1328 1327 1326 1325 1324 1322 1321 1319 1317 1315 1313 1310 1306 1303 1300 1298 1296 1297 1299 1300 1299 1297 1296 1294 1292 1292 1293 1294 1296 1296 1295 1296 1298 1300 1303 1306 1309 1311
1412 1410 1408 1406 1405 1403 1401 1399 1398 1396 1395 1392 1390 1388 1387 1385 1382 1380 1378 1376 1374 1372 1370 1368 1366 1364 1362 1359 1357 1355 1354 1352 1350 1348 1346 1345 1343 1341 1339 1336 1334 1331 1329 1327 1325 1324 1324 1325 1325 1325 1324 1323 1322 1320 1319 1318 1316 1315 1313 1311 1308 1305 1302 1299 1297 1296 1297 1297 1295 1294 1294 1292 1291 1291 1291 1293 1293 1293 1293 1295 1297 1300 1302 1305 1308 1310
1410 1409 1406 1405 1403 1400 1398 1397 1395 1394 1392 1390 1388 1385 1384 1382 1380 1378 1375 1374 1372 1370 1368 1366 1365 1363 1360 1358 1355 1353 1351 1350 1348 1346 1344 1342 1340 1338 1336 1334 1332 1330 1327 1325 1323 1322 1321 1322 1323 1323 1322 1321 1320 1319 1317 1316 1315 1314 1312 1311 1310 1307 1305 1302 1300 1297 1296 1294 1293 1292 1292 1291 1291 1291 1291 1292 1292 1291 1292 1295 1298 1300 1303 1305 1307 1309
1408 1407 1405 1403 1401 1398 1396 1394 1393 1391 1390 1387 1385 1383 1382 1380 1378 1375 1373 1371 1370 1368 1366 1365 1363 1360 1358 1356 1354 1351 1349 1348 1346 1344 1341 1340 1337 1335 1334 1332 1330 1328 1325 1323 1321 1320 1319 1319 1320 1320 1320 1319 1318 1317 1315 1315 1314 1312 1311 1310 1309 1308 1306 1304 1301 1298 1295 1292 1290 1290 1290 1290 1290 1291 1292 1291 1291 1291 1292 1295 1298 1300 1302 1304 1306 1307
1405 1404 1403 1401 1399 1396 1394 1392 1391 1390 1388 1385 1383 1381 1380 1378 1376 1374 1372 1370 1369 1367 1365 1363 1360 1359 1356 1354 1352 1350 1348 1346 1344 1342 1340 1337 1335 1333 1331 1330 1328 1325 1324 1321 1319 1318 1316 1316 1317 1318 1317 1317 1316 1315 1314 1313 1312 1310 1309 1308 1307 1306 1305 1304 1302 1299 1295 1292 1290 1289 1289 1289 1290 1292 1292 1291 1290 1291 1293 1295 1298 1300 1301 1303 1305 1306
1402 1401 1400 1399 1397 1394 1392 1390 1389 1388 1387 1384 1382 1379 1377 1376 1374 1373 1371 1370 1368 1366 1363 1361 1359 1356 1355 1353 1351 1349 1347 1345 1342 1340 1338 1335 1334 1331 1330 1328 1326 1324 1322 1320 1317 1315 1314 1313 1314 1315 1315 1315 1314 1313 1312 1311 1310 1308 1307 1306 1305 1305 1304 1303 1301 1299 1296 1294 1291 1290 1290 1290 1291 1291 1291 1291 1291 1292 1293 1295 1297 1299 1300 1302 1304 1305
1401 1399 1397 1396 1395 1393 1390 1388 1387 1386 1385 1383 1381 1379 1376 1374 1372 1370 1369 1368 1366 1365 1362 1360 1357 1355 1353 1351 1350 1348 1345 1343 1341 1339 1336 1334 1332 1330 1328 1326 1324 1322 1320 1318 1316 1314 1312 1310 1311 1312 1313 1313 1312 1311 1310 1309 1307 1306 1305 1304 1303 1303 1302 1301 1300 1299 1297 1295 1293 1291 1290 1290 1290 1290 1290 1291 1292 1292 1294 1295 1297 1299 1300 1302 1304 1305
1399 1397 1395 1393 1393 1391 1389 1386 1384 1383 1383 1381 1380 1378 1376 1374 1371 1369 1367 1365 1364 1363 1361 1359 1356 1353 1350 1349 1347 1346 1344 1341 1340 1338 1335 1333 1331 1329 1327 1325 1323 1320 1319 1317 1315 1313 1310 1309 1308 1309 1310 1310 1310 1309 1308 1307 1305 1305 1303 1302 1301 1301 1300 1300 1299 1298 1296 1295 1293 1291 1291 1290 1290 1289 1290 1292 1292 1293 1294 1295 1296 1298 1300 1301 1303 1305
1397 1396 1394 1392 1390 1389 1388 1385 1383 1381 1380 1379 1378 1376 1375 1374 1372 1369 1365 1363 1361 1360 1359 1357 1355 1352 1350 1347 1345 1343 1342 1340 1337 1335 1334 1332 1330 1328 1326 1324 1322 1320 1318 1316 1314 1312 1310 1307 1306 1306 1307 1308 1308 1307 1306 1305 1304 1303 1302 1301 1300 1300 1299 1299 1298 1296 1295 1294 1292 1291 1291 1290 1291 1291 1292 1293 1293 1293 1293 1295 1296 1298 1300 1301 1302 1304
1395 1394 1392 1390 1388 1387 1385 1384 1382 1380 1380 1379 1377 1375 1374 1373 1371 1369 1366 1362 1359 1357 1356 1354 1352 1351 1349 1346 1344 1341 1340 1338 1336 1334 1332 1330 1328 1327 1325 1323 1321 1319 1317 1315 1313 1311 1309 1306 1305 1304 1305 1305 1306 1306 1305 1304 1302 1301 1300 1300 1299 1298 1298 1298 1297 1296 1295 1294 1292 1291 1290 1291 1291 1293 1293 1293 1293 1293 1293 1294 1295 1297 1299 1300 1301 1303
1394 1392 1390 1389 1387 1385 1384 1383 1381 1380 1380 1378 1377 1375 1372 1370 1369 1368 1365 1361 1359 1356 1354 1352 1350 1348 1347 1345 1343 1340 1338 1336 1334 1332 1330 1329 1327 1326 1324 1322 1320 1319 1317 1315 1312 1310 1308 1306 1303 1302 1302 1303 1303 1304 1303 1302 1301 1300 1299 1298 1297 1297 1297 1296 1296 1295 1295 1294 1293 1292 1290 1290 1290 1291 1292 1292 1292 1293 1294 1295 1295 1297 1298 1299 1300 1302
1393 1391 1390 1388 1386 1385 1384 1383 1381 1380 1378 1377 1375 1374 1371 1369 1367 1365 1363 1360 1357 1355 1353 1350 1348 1345 1344 1343 1341 1339 1337 1334 1332 1330 1329 1327 1326 1325 1324 1322 1320 1318 1316 1314 1312 1309 1307 1305 1303 1300 1299 1300 1300 1301 1301 1300 1300 1299 1298 1297 1296 1296 1295 1295 1295 1294 1294 1293 1292 1291 1290 1289 1289 1290 1290 1291 1292 1294 1295 1295 1296 1296 1297 1299 1300 1301
1392 1391 1389 1387 1386 1385 1383 1382 1380 1379 1377 1375 1374 1372 1370 1367 1365 1364 1361 1358 1355 1353 1351 1349 1346 1344 1342 1341 1340 1338 1336 1334 1332 1330 1328 1326 1325 1325 1323 1321 1319 1317 1315 1313 1311 1309 1307 1305 1302 1300 1297 1297 1298 1299 1299 1299 1298 1297 1297 1296 1295 1295 1294 1294 1293 1293 1292 1291 1290 1290 1289 1289 1290 1290 1291 1292 1293 1295 1295 1296 1296 1296 1297 1298 1300 1300
1391 1390 1388 1386 1385 1383 1382 1381 1379 1377 1375 1374 1372 1370 1368 1366 1364 1362 1360 1357 1354 1352 1350 1348 1345 1341 1340 1339 1339 1338 1336 1334 1331 1329 1327 1325 1324 1323 1322 1320 1318 1315 1314 1312 1310 1308 1306 1304 1301 1299 1297 1295 1295 1296 1296 1296 1296 1296 1295 1295 1294 1294 1293 1293 1292 1292 1291 1291 1290 1290 1290 1290 1291 1291 1292 1293 1294 1295 1295 1296 1296 1296 1297 1298 1299 1300
1390 1388 1386 1385 1383 1382 1380 1380 1378 1376 1374 1372 1370 1369 1367 1365 1362 1360 1358 1356 1354 1351 1349 1347 1345 1341 1337 1336 1336 1336 1336 1333 1331 1328 1326 1324 1322 1322 1321 1319 1316 1314 1312 1311 1309 1307 1305 1303 1300 1298 1296 1294 1293 1293 1294 1294 1294 1295 1294 1294 1293 1293 1292 1292 1292 1291 1291 1291 1290 1290 1291 1290 1291 1292 1293 1294 1294 1295 1295 1295 1295 1296 1296 1298 1299 1300
1388 1387 1385 1384 1382 1380 1379 1378 1376 1375 1373 1371 1369 1367 1365 1363 1361 1359 1357 1355 1353 1350 1348 1346 1345 1342 1339 1335 1334 1334 1335 1333 1330 1327 1324 1322 1320 1320 1319 1318 1315 1313 1311 1310 1308 1306 1304 1302 1299 1297 1295 1293 1291 1291 1291 1291 1292 1293 1293 1293 1292 1292 1292 1292 1291 1291 1291 1291 1290 1290 1290 1290 1290 1290 1292 1293 1294 1294 1295 1295 1295 1295 1296 1298 1299 1300
1386 1385 1384 1382 1380 1379 1377 1376 1375 1373 1371 1370 1367 1365 1363 1361 1360 1358 1356 1354 1352 1350 1347 1345 1343 1341 1339 1336 1333 1333 1333 1331 1328 1325 1322 1320 1318 1317 1317 1316 1314 1312 1310 1308 1306 1305 1303 1300 1297 1295 1293 1291 1290 1289 1289 1289 1290 1290 1291 1291 1291 1291 1291 1291 1291 1291 1291 1290 1290 1290 1290 1290 1290 1290 1290 1291 1293 1293 1294 1295 1295 1296 1297 1298 1299 1301
1385 1383 1382 1381 1379 1377 1376 1374 1373 1372 1370 1368 1366 1364 1361 1359 1357 1356 1354 1352 1350 1348 1346 1344 1342 1340 1337 1335 1332 1331 1331 1330 1327 1324 1320 1318 1316 1315 1315 1314 1312 1310 1308 1306 1305 1303 1301 1299 1296 1293 1291 1290 1289 1288 1287 1287 1287 1288 1288 1289 1290 1290 1290 1291 1291 1290 1290 1290 1290 1290 1290 1290 1290 1290 1290 1290 1291 1292 1293 1294 1295 1296 1297 1298 1299 1301
1383 1381 1380 1379 1378 1376 1374 1372 1371 1370 1369 1367 1365 1362 1360 1358 1356 1354 1352 1351 1349 1347 1345 1343 1340 1338 1336 1333 1330 1329 1328 1328 1325 1322 1319 1316 1314 1313 1313 1312 1311 1309 1306 1305 1303 1302 1300 1298 1295 1292 1290 1288 1287 1286 1285 1285 1285 1285 1285 1286 1287 1288 1289 1289 1290 1290 1290 1290 1289 1289 1289 1289 1290 1290 1290 1290 1290 1292 1293 1294 1295 1296 1297 1298 1299 1300
1380 1379 1377 1377 1376 1375 1372 1370 1369 1368 1367 1365 1363 1361 1359 1356 1354 1352 1350 1349 1347 1345 1343 1341 1339 1336 1334 1331 1329 1326 1326 1326 1324 1321 1318 1314 1311 1310 1311 1311 1309 1307 1305 1303 1302 1301 1299 1297 1294 1292 1289 1287 1286 1285 1284 1283 1283 1282 1283 1284 1284 1285 1286 1287 1288 1288 1288 1288 1288 1288 1288 1288 1289 1289 1289 1289 1290 1291 1292 1294 1295 1296 1296 1297 1298 1300
1378 1377 1375 1375 1374 1372 1370 1369 1367 1366 1365 1363 1362 1360 1358 1355 1353 1351 1349 1347 1345 1343 1341 1339 1336 1334 1332 1329 1327 1325 1324 1324 1322 1320 1317 1314 1310 1309 1309 1309 1308 1306 1304 1302 1301 1300 1298 1296 1293 1291 1289 1287 1285 1284 1282 1281 1280 1280 1280 1281 1281 1282 1283 1284 1285 1285 1286 1286 1287 1287 1287 1287 1287 1288 1288 1289 1290 1290 1292 1293 1295 1295 1296 1297 1298 1299
1376 1375 1374 1372 1371 1370 1369 1367 1365 1364 1363 1361 1360 1358 1356 1354 1352 1350 1348 1346 1344 1342 1339 1337 1334 1331 1329 1327 1325 1324 1322 1322 1320 1319 1316 1313 1310 1307 1307 1307 1306 1304 1302 1301 1300 1299 1297 1295 1293 1290 1289 1287 1285 1283 1282 1280 1279 1278 1278 1278 1279 1279 1280 1280 1281 1282 1283 1284 1285 1285 1285 1285 1286 1286 1287 1288 1289 1290 1291 1293 1294 1295 1296 1296 1297 1298
1374 1373 1372 1371 1370 1369 1368 1366 1365 1363 1361 1360 1358 1355 1354 1352 1350 1348 1346 1344 1342 1340 1338 1335 1333 1330 1327 1325 1324 1321 1320 1320 1319 1317 1315 1312 1308 1306 1305 1305 1304 1302 1300 1299 1299 1298 1296 1294 1292 1290 1289 1287 1285 1284 1282 1280 1279 1277 1277 1276 1277 1277 1278 1278 1279 1280 1280 1281 1282 1283 1283 1284 1285 1285 1286 1287 1288 1290 1291 1293 1294 1295 1295 1296 1296 1297
1373 1372 1371 1370 1369 1368 1366 1365 1363 1361 1360 1358 1356 1354 1352 1350 1348 1346 1344 1343 1341 1340 1337 1334 1331 1328 1326 1324 1322 1320 1318 1318 1317 1315 1314 1311 1308 1305 1304 1304 1303 1301 1299 1298 1297 1296 1295 1293 1291 1290 1289 1287 1285 1284 1283 1281 1280 1278 1277 1276 1276 1276 1276 1277 1277 1278 1279 1279 1280 1280 1281 1282 1283 1284 1285 1286 1287 1289 1291 1292 1294 1294 1295 1295 1295 1296
1372 1371 1370 1368 1367 1365 1364 1362 1360 1359 1357 1356 1354 1353 1351 1349 1347 1345 1343 1341 1340 1338 1336 1333 1330 1327 1324 1322 1320 1318 1317 1316 1315 1314 1313 1310 1307 1304 1302 1302 1301 1300 1298 1296 1295 1294 1293 1292 1290 1289 1288 1287 1286 1285 1284 1283 1281 1280 1279 1278 1277 1276 1276 1276 1277 1277 1277 1278 1278 1279 1280 1280 1281 1282 1284 1285 1286 1288 1290 1292 1293 1293 1294 1294 1295 1295
1370 1369 1367 1366 1365 1363 1361 1360 1358 1356 1355 1354 1352 1351 1350 1348 1346 1343 1341 1340 1338 1337 1335 1332 1329 1326 1323 1321 1319 1317 1315 1315 1314 1312 1311 1310 1307 1304 1302 1301 1300 1299 1297 1295 1293 1292 1291 1290 1290 1289 1288 1287 1286 1285 1285 1284 1282 1281 1280 1279 1278 1277 1277 1276 1276 1277 1277 1277 1278 1278 1279 1280 1280 1282 1283 1284 1286 1288 1289 1290 1291 1292 1293 1293 1294 1294
1367 1366 1365 1363 1362 1361 1359 1358 1356 1355 1353 1352 1351 1350 1348 1346 1345 1342 1340 1338 1337 1335 1333 1330 1328 1326 1323 1320 1317 1315 1314 1313 1312 1311 1310 1309 1306 1303 1301 1300 1300 1298 1296 1294 1291 1290 1289 1289 1289 1288 1288 1287 1286 1286 1285 1284 1283 1282 1281 1280 1279 1278 1278 1277 1277 1277 1277 1277 1277 1278 1278 1279 1280 1281 1283 1284 1285 1287 1288 1289 1290 1291 1291 1292 1293 1293
1364 1363 1362 1361 1360 1359 1357 1356 1354 1353 1352 1351 1350 1348 1347 1345 1343 1341 1339 1337 1335 1334 1331 1329 1327 1325 1323 1320 1317 1314 1312 1311 1311 1310 1310 1308 1305 1303 1301 1300 1299 1297 1296 1294 1291 1288 1286 1286 1287 1287 1287 1287 1286 1285 1285 1284 1283 1282 1281 1281 1280 1279 1278 1277 1277 1277 1277 1277 1277 1277 1278 1279 1280 1281 1282 1284 1285 1286 1287 1288 1289 1290 1290 1291 1292 1292
1362 1361 1360 1359 1358 1357 1355 1354 1353 1351 1350 1349 1348 1346 1345 1343 1341 1340 1338 1336 1334 1332 1330 1328 1326 1324 1322 1320 1317 1314 1311 1310 1310 1310 1309 1307 1305 1302 1301 1300 1298 1296 1296 1295 1292 1289 1285 1284 1284 1285 1285 1285 1285 1284 1284 1283 1283 1282 1281 1280 1280 1279 1278 1277 1277 1276 1276 1276 1277 1277 1277 1278 1279 1280 1281 1283 1284 1285 1286 1287 1288 1289 1289 1290 1291 1292
1361 1360 1359 1358 1356 1355 1354 1352 1351 1350 1348 1347 1346 1345 1343 1341 1340 1338 1336 1334 1333 1331 1329 1327 1325 1323 1321 1319 1317 1314 1310 1309 1308 1308 1308 1306 1304 1301 1300 1299 1297 1295 1295 1294 1293 1291 1287 1284 1282 1282 1282 1283 1282 1282 1282 1282 1282 1281 1281 1280 1280 1279 1278 1277 1277 1276 1276 1276 1276 1276 1276 1277 1278 1279 1280 1281 1283 1284 1285 1286 1287 1288 1288 1289 1290 1291
1360 1358 1357 1356 1355 1353 1352 1350 1349 1348 1347 1345 1344 1343 1341 1340 1338 1336 1335 1333 1331 1330 1328 1325 1323 1321 1319 1317 1315 1312 1309 1307 1307 1307 1307 1305 1303 1301 1299 1298 1296 1295 1294 1293 1292 1291 1289 1285 1282 1280 1280 1280 1280 1280 1280 1280 1280 1280 1280 1279 1279 1278 1278 1277 1276 1276 1275 1275 1275 1275 1275 1276 1277 1278 1279 1280 1281 1283 1284 1285 1286 1287 1287 1288 1289 1290
1358 1357 1355 1354 1353 1352 1350 1349 1348 1347 1345 1344 1342 1341 1339 1338 1336 1335 1333 1331 1330 1328 1326 1324 1322 1320 1318 1315 1313 1310 1308 1306 1306 1306 1305 1304 1302 1300 1298 1297 1296 1294 1293 1292 1290 1289 1288 1285 1283 1281 1280 1278 1278 1278 1278 1278 1278 1278 1278 1278 1278 1277 1277 1276 1275 1275 1275 1274 1274 1274 1275 1275 1276 1277 1278 1279 1280 1281 1283 1284 1285 1285 1286 1287 1288 1290
1356 1355 1354 1353 1351 1350 1349 1348 1347 1346 1344 1343 1341 1340 1338 1336 1335 1333 1331 1330 1328 1326 1325 1323 1321 1319 1317 1314 1311 1309 1306 1305 1304 1304 1304 1303 1301 1300 1298 1296 1295 1294 1293 1291 1290 1288 1286 1285 1283 1282 1280 1278 1276 1276 1276 1276 1277 1277 1277 1276 1276 1276 1275 1275 1275 1274 1274 1273 1273 1273 1274 1274 1275 1275 1276 1277 1278 1280 1281 1282 1283 1284 1285 1285 1286 1288
1354 1353 1352 1351 1350 1349 1348 1347 1345 1344 1343 1341 1340 1338 1336 1335 1333 1331 1330 1328 1327 1325 1323 1321 1320 1317 1315 1313 1310 1308 1305 1303 1302 1302 1302 1301 1300 1299 1297 1295 1294 1293 1292 1290 1289 1288 1286 1284 1282 1281 1280 1278 1276 1275 1275 1275 1275 1275 1275 1275 1275 1274 1274 1274 1273 1273 1273 1272 1272 1272 1272 1273 1273 1274 1274 1275 1276 1277 1278 1280 1281 1282 1283 1284 1285 1286
1352 1351 1350 1350 1349 1348 1346 1345 1344 1343 1341 1340 1338 1337 1335 1333 1331 1330 1328 1326 1325 1323 1321 1319 1317 1315 1313 1311 1309 1306 1304 1302 1300 1300 1300 1299 1298 1297 1295 1293 1292 1291 1291 1290 1288 1287 1285 1284 1282 1280 1280 1278 1277 1275 1274 1273 1273 1273 1273 1273 1273 1273 1272 1272 1271 1271 1271 1271 1271 1271 1271 1271 1271 1272 1272 1273 1274 1275 1276 1278 1279 1280 1282 1283 1284 1285
1351 1350 1349 1348 1347 1346 1345 1344 1342 1341 1340 1338 1336 1335 1333 1331 1330 1328 1326 1325 1323 1321 1319 1317 1315 1313 1311 1309 1307 1304 1302 1300 1299 1298 1297 1297 1296 1295 1294 1292 1290 1290 1290 1289 1288 1286 1285 1283 1281 1280 1278 1277 1276 1275 1274 1273 1272 1271 1271 1271 1271 1271 1271 1270 1270 1270 1270 1270 1270 1270 1270 1270 1270 1270 1271 1271 1272 1273 1275 1276 1277 1279 1280 1281 1283 1284
1349 1348 1347 1346 1345 1345 1343 1342 1341 1340 1338 1336 1335 1333 1331 1330 1328 1326 1325 1323 1321 1319 1317 1315 1313 1311 1309 1307 1305 1303 1301 1299 1298 1296 1295 1295 1294 1293 1292 1291 1289 1288 1288 1287 1286 1285 1284 1283 1281 1279 1278 1276 1275 1274 1273 1272 1271 1270 1270 1269 1269 1269 1270 1270 1269 1269 1269 1268 1269 1269 1269 1269 1269 1270 1270 1271 1271 1273 1274 1275 1276 1277 1279 1280 1282 1283
1347 1346 1345 1345 1344 1343 1342 1340 1339 1338 1336 1335 1333 1331 1330 1328 1326 1324 1323 1321 1319 1317 1316 1314 1312 1310 1308 1306 1304 1302 1300 1298 1297 1295 1294 1293 1292 1291 1291 1290 1288 1287 1286 1286 1285 1284 1283 1282 1280 1279 1277 1276 1275 1273 1272 1271 1270 1270 1269 1268 1267 1267 1268 1268 1268 1268 1268 1268 1268 1268 1268 1268 1268 1269 1269 1270 1271 1272 1273 1274 1276 1277 1278 1280 1281 1282
1345 1344 1344 1343 1342 1341 1340 1339 1338 1336 1335 1333 1331 1330 1328 1326 1325 1323 1321 1320 1318 1316 1314 1313 1311 1309 1307 1305 1303 1301 1299 1297 1295 1294 1293 1291 1290 1290 1289 1288 1287 1286 1285 1284 1283 1282 1281 1280 1279 1277 1276 1275 1274 1273 1271 1270 1270 1269 1269 1268 1266 1265 1265 1266 1267 1267 1267 1267 1267 1267 1267 1267 1268 1268 1268 1269 1270 1271 1272 1274 1275 1277 1279 1280 1280 1281
1343 1343 1342 1341 1340 1339 1338 1337 1336 1335 1333 1332 1330 1329 1327 1325 1324 1322 1320 1318 1316 1315 1313 1311 1309 1307 1305 1303 1301 1300 1298 1296 1294 1293 1291 1290 1289 1288 1287 1286 1285 1285 1284 1283 1281 1280 1280 1279 1278 1276 1275 1274 1273 1272 1270 1269 1269 1269 1268 1267 1265 1265 1264 1264 1265 1266 1266 1266 1266 1266 1266 1267 1267 1267 1268 1268 1269 1270 1272 1273 1275 1276 1278 1279 1280 1281
1341 1341 1340 1339 1338 1337 1336 1335 1334 1333 1331 1330 1329 1328 1326 1324 1323 1321 1319 1317 1315 1314 1312 1310 1308 1306 1304 1302 1300 1298 1297 1295 1294 1292 1290 1289 1288 1287 1286 1285 1284 1283 1283 1281 1280 1279 1278 1277 1276 1275 1274 1273 1273 1271 1270 1268 1268 1267 1267 1266 1265 1265 1263 1262 1263 1264 1265 1265 1266 1266 1266 1266 1266 1266 1267 1268 1269 1270 1271 1272 1274 1275 1276 1278 1279 1280
1340 1339 1338 1337 1336 1335 1334 1333 1332 1331 1330 1329 1328 1326 1325 1323 1321 1320 1318 1316 1314 1312 1310 1309 1307 1305 1303 1301 1299 1297 1296 1294 1293 1291 1290 1288 1287 1286 1285 1284 1283 1282 1281 1280 1279 1278 1276 1275 1274 1273 1273 1272 1271 1270 1269 1268 1267 1266 1266 1265 1265 1264 1263 1262 1261 1262 1263 1263 1264 1265 1265 1265 1266 1266 1266 1267 1268 1269 1270 1271 1272 1273 1274 1276 1277 1279
1338 1337 1336 1335 1335 1334 1333 1332 1331 1330 1329 1327 1326 1325 1323 1322 1320 1319 1317 1315 1313 1311 1310 1308 1306 1304 1302 1300 1298 1296 1295 1293 1291 1290 1289 1287 1286 1285 1284 1283 1282 1280 1280 1279 1278 1277 1275 1274 1273 1272 1271 1271 1270 1269 1268 1267 1266 1265 1265 1265 1264 1263 1262 1261 1261 1261 1260 1261 1262 1262 1263 1264 1265 1265 1265 1266 1267 1267 1268 1269 1270 1271 1273 1274 1276 1277
1336 1335 1335 1334 1333 1332 1331 1330 1329 1328 1327 1325 1325 1323 1322 1320 1319 1317 1315 1314 1312 1310 1309 1307 1305 1304 1301 1299 1297 1295 1294 1292 1290 1289 1287 1286 1285 1283 1282 1282 1280 1280 1278 1277 1276 1275 1274 1273 1272 1271 1270 1270 1268 1267 1266 1266 1265 1265 1264 1263 1263 1262 1261 1261 1260 1260 1260 1260 1260 1260 1261 1262 1263 1263 1264 1264 1265 1265 1266 1267 1268 1270 1271 1273 1274 1275
1335 1334 1333 1332 1331 1330 1329 1328 1327 1326 1325 1324 1323 1321 1320 1319 1318 1316 1314 1313 1311 1309 1307 1306 1304 1303 1301 1299 1297 1295 1293 1291 1289 1287 1286 1285 1283 1282 1281 1280 1279 1278 1277 1276 1275 1273 1272 1271 1270 1270 1269 1268 1266 1265 1264 1264 1264 1263 1263 1262 1262 1262 1261 1260 1260 1259 1259 1259 1259 1260 1260 1261 1261 1261 1262 1262 1263 1264 1265 1266 1267 1268 1269 1270 1272 1273
1332 1332 1331 1330 1329 1328 1327 1326 1325 1325 1323 1322 1321 1320 1319 1318 1316 1315 1313 1311 1310 1308 1306 1304 1303 1301 1300 1298 1296 1295 1293 1291 1289 1287 1285 1284 1283 1281 1280 1279 1278 1276 1275 1274 1272 1271 1270 1269 1268 1267 1267 1266 1265 1263 1262 1262 1262 1262 1261 1261 1261 1260 1260 1259 1259 1259 1259 1259 1259 1259 1260 1260 1260 1260 1261 1261 1262 1263 1264 1265 1266 1267 1268 1269 1270 1272
1330 1330 1329 1328 1327 1326 1325 1325 1324 1323 1321 1320 1319 1318 1317 1316 1315 1313 1311 1310 1308 1306 1305 1303 1301 1300 1298 1296 1295 1294 1292 1290 1288 1286 1285 1283 1282 1280 1279 1277 1276 1275 1273 1272 1270 1269 1268 1266 1265 1265 1264 1264 1263 1261 1260 1260 1260 1260 1260 1260 1260 1259 1259 1258 1258 1258 1258 1258 1258 1258 1258 1259 1259 1260 1260 1261 1261 1262 1263 1263 1264 1265 1266 1268 1269 1270
1328 1328 1327 1326 1325 1324 1323 1322 1322 1321 1320 1319 1317 1316 1315 1314 1313 1311 1310 1308 1307 1305 1304 1302 1300 1299 1297 1295 1294 1292 1291 1289 1287 1286 1284 1283 1281 1280 1278 1276 1275 1274 1272 1270 1269 1268 1266 1265 1263 1262 1261 1261 1260 1260 1259 1258 1258 1258 1259 1258 1258 1258 1257 1257 1257 1257 1257 1257 1257 1257 1257 1258 1258 1259 1260 1260 1260 1260 1261 1262 1263 1264 1265 1266 1267 1269
1326 1326 1325 1324 1323 1322 1321 1320 1320 1319 1318 1317 1315 1315 1313 1312 1311 1310 1308 1307 1305 1304 1302 1301 1299 1298 1296 1294 1293 1291 1290 1288 1287 1285 1283 1282 1280 1279 1277 1275 1274 1273 1271 1270 1268 1267 1266 1264 1262 1261 1260 1259 1259 1258 1258 1257 1257 1257 1257 1256 1256 1256 1256 1256 1255 1255 1255 1256 1256 1256 1256 1256 1257 1258 1258 1259 1259 1260 1260 1261 1262 1263 1264 1265 1266 1267